カタログに戻る

ARIANE 1 DEB

LostGTO
NORAD 29018·DEBRIS·🇫🇷 France

打ち上げ Dec 24, 1979 から Guiana Space Centre

Loading…

TLE

古いSource: Space-Track

元期: Aug 28, 2018, 15:12 UTC

1 29018U 79104AA  18240.63354834 -.00000178  00000-0  21159-1 0  9998
2 29018  19.1257 295.3201 7149915 218.4122  58.3175  2.08399092107307

AllMySatでARIANE 1 DEBをリアルタイム追跡

Download on the App Store